Weather History for Marathon, FL

Change the Weather History Date:

Friday, July 12, 2013

  Actual Average Record
Temperature  
Mean Temperature 87 °F 85 °F  
Max Temperature 93 °F 91 °F 93 °F (2013)
Min Temperature 81 °F 79 °F 73 °F (1998)
Degree Days  
Heating Degree Days 0 0  
Month to date heating degree days 0 0  
Since 1 June heating degree days 0 0  
Since 1 July heating degree days 0 0  
Cooling Degree Days 22 20  
Month to date cooling degree days 244 240  
Year to date cooling degree days 2690 2377  
Since 1 June cooling degree days 860 834  
Growing Degree Days 36 (Base 50)    
Moisture  
Dew Point 73 °F    
Average Humidity 63    
Maximum Humidity 74    
Minimum Humidity 52    
Precipitation  
Precipitation 0.00 in 0.11 in 0.98 in (1998)
Month to date precipitation 1.94 1.57  
Year to date precipitation 30.95 19.12  
Snow  
Snow 0.00 in - - ()
Month to date snowfall 0.0  
Since 1 June snowfall 0.0  
Since 1 July snowfall 0.0  
Snow Depth 0.00 in    
Sea Level Pressure  
Sea Level Pressure 29.95 in    
Wind  
Wind Speed 5 mph (South)    
Max Wind Speed 12 mph    
Max Gust Speed 17 mph    
Visibility 10 miles    
Events      
T = Trace of Precipitation, MM = Missing Value Source: NWS Daily Summary

Daily Weather History Graph

Daily Weather History Graph

Search for Another Location

Airport:

Trip Planner

Search our weather history database for the weather conditions in past years. The results will help you decide how hot, cold, wet, or windy it might be!

Date:

Astronomy

Jul. 12, 2013 Rise Set
Actual Time 6:43 AM EDT 8:16 PM EDT
Civil Twilight 6:17 AM EDT 8:41 PM EDT
Nautical Twilight 5:47 AM EDT 9:12 PM EDT
Astronomical Twilight 5:15 AM EDT 9:43 PM EDT
Moon 10:27 AM EDT (7/12) 11:00 PM EDT (7/12)
Length of Visible Light 14h 23m
Length of Day
13h 33m
Waxing Crescent, 17% of the Moon is Illuminated
Jul 12
Waxing Crescent
Jul 15
First Quarter
Jul 22
Full
Jul 29
Last Quarter
Aug 6
New

Hourly Weather History & Observations

Time (EDT) Temp. Heat Index Dew Point Humidity Pressure Visibility Wind Dir Wind Speed Gust Speed Precip Events Conditions
12:53 AM 84.0 °F 91.2 °F 73.9 °F 72% 29.96 in 10.0 mi South 8.1 mph - N/A   Clear
1:53 AM 82.9 °F 89.4 °F 73.9 °F 74% 29.94 in 10.0 mi South 5.8 mph - N/A   Clear
2:53 AM 82.9 °F 88.8 °F 73.0 °F 72% 29.93 in 10.0 mi Variable 3.5 mph - N/A   Clear
3:53 AM 82.0 °F 87.4 °F 73.0 °F 74% 29.92 in 10.0 mi Variable 3.5 mph - N/A   Clear
4:53 AM 82.9 °F 88.8 °F 73.0 °F 72% 29.93 in 10.0 mi South 3.5 mph - N/A   Partly Cloudy
5:53 AM 82.0 °F 87.4 °F 73.0 °F 74% 29.93 in 10.0 mi SSE 4.6 mph - N/A   Partly Cloudy
6:53 AM 82.0 °F 86.7 °F 72.0 °F 71% 29.94 in 10.0 mi SSE 3.5 mph - N/A   Clear
7:53 AM 84.0 °F 89.6 °F 72.0 °F 67% 29.96 in 10.0 mi Calm Calm - N/A   Clear
8:53 AM 86.0 °F 92.2 °F 72.0 °F 63% 29.96 in 10.0 mi Variable 3.5 mph - N/A   Partly Cloudy
9:53 AM 87.1 °F 93.6 °F 72.0 °F 61% 29.98 in 10.0 mi SE 4.6 mph - N/A   Clear
10:53 AM 89.1 °F 97.0 °F 73.0 °F 59% 29.99 in 10.0 mi South 5.8 mph - N/A   Clear
11:53 AM 91.0 °F 99.3 °F 73.0 °F 55% 29.98 in 10.0 mi Variable 3.5 mph - N/A   Clear
12:53 PM 90.0 °F 97.9 °F 73.0 °F 57% 29.96 in 10.0 mi SSW 3.5 mph - N/A   Clear
1:53 PM 91.0 °F 99.3 °F 73.0 °F 55% 29.95 in 10.0 mi South 5.8 mph - N/A   Clear
2:53 PM 91.0 °F 99.3 °F 73.0 °F 55% 29.94 in 10.0 mi SSW 4.6 mph - N/A   Clear
3:53 PM 91.0 °F 98.2 °F 72.0 °F 53% 29.94 in 10.0 mi Variable 4.6 mph - N/A   Clear
4:53 PM 91.0 °F 98.2 °F 72.0 °F 53% 29.93 in 10.0 mi Variable 5.8 mph - N/A   Partly Cloudy
5:53 PM 89.1 °F 95.0 °F 71.1 °F 55% 29.91 in 10.0 mi South 6.9 mph - N/A   Scattered Clouds
6:53 PM 87.1 °F 92.8 °F 71.1 °F 59% 29.93 in 10.0 mi South 5.8 mph - N/A   Clear
7:53 PM 86.0 °F 92.2 °F 72.0 °F 63% 29.94 in 10.0 mi South 5.8 mph - N/A   Mostly Cloudy
8:09 PM 86.0 °F 93.4 °F 73.4 °F 66% 29.94 in 10.0 mi South 6.9 mph - N/A   Mostly Cloudy
8:53 PM 84.0 °F 90.2 °F 73.0 °F 69% 29.95 in 10.0 mi South 6.9 mph - N/A   Scattered Clouds
9:53 PM 84.0 °F 90.2 °F 73.0 °F 69% 29.96 in 10.0 mi South 6.9 mph - N/A   Scattered Clouds
10:53 PM 84.0 °F 90.2 °F 73.0 °F 69% 29.97 in 10.0 mi South 5.8 mph - N/A   Clear
11:39 PM 84.2 °F 89.6 °F 71.6 °F 66% 29.97 in 10.0 mi South 9.2 mph - N/A   Mostly Cloudy
11:53 PM 84.0 °F 89.6 °F 72.0 °F 67% 29.98 in 10.0 mi SSW 5.8 mph - N/A   Scattered Clouds